[[{"header":{"parameterUnit":"m.s-1","parameterCategory":1,"la1":30.2991,"la2":30.254,"lo1":-89.0895,"lo2":-89.0444,"dy":0.0017,"dx":0.0017,"nx":28,"ny":28,"refTime":"2025-02-04T09:00:00:Z","depth":0,"parameterNumber":2,"parameterNumberName":"U-component_of_WINDS"},"data":[0,0,0,0,0,0,0,0,0,0,0,0,0,0,0,0,0,0,0,0,0,0,0,0,0,0,0,0,0,0,0,0,0,0,0,0,0,0,0,0,0,0,0,0,0,0,0,0,0,0,0,0,0,0,0,0,0,0,0.2272,0.2273,0,0.232,0.2321,0.2321,0.2356,0.2357,0.2357,0.2357,0.2405,0.2406,0.2407,0,0,0,0,0,0,0,0,0,0,0,0,0,0.2209,0.221,0.2272,0.2273,0.2274,0.232,0.2321,0.2322,0.2356,0.2357,0.2357,0.2357,0.2405,0.2406,0.2407,0,0,0,0,0,0,0,0,0,0,0,0,0,0.2245,0.2211,0.2272,0.2296,0.2299,0.232,0.2321,0.2322,0.2356,0.2357,0.2357,0.2357,0.2405,0.2406,0.2407,0.2408,0,0,0.2412,0.2413,0,0,0,0,0,0,0,0,0.2243,0.2247,0.2292,0.2295,0.2298,0.2333,0.2316,0.2351,0.2356,0.2334,0.2357,0.2358,0.2381,0.2384,0.2392,0.241,0.2412,0.2412,0.2413,0.2414,0.2414,0,0,0,0,0,0,0,0.224,0.2245,0.2291,0.2293,0.2296,0.2305,0.231,0.2323,0.2354,0.2336,0.2339,0.2344,0.2382,0.2391,0.2394,0.2413,0.2412,0.2414,0.2414,0.2415,0.2434,0.2433,0,0,0,0,0,0,0.2234,0.2243,0.229,0.2293,0.2271,0.2305,0.2312,0.2321,0.2354,0.236,0.2344,0.2346,0.2388,0.2392,0.2395,0.2398,0.2414,0.2415,0.2416,0.2434,0.2433,0.2433,0,0,0,0,0,0,0.2233,0.2238,0.2288,0.2269,0.2276,0.2306,0.2316,0.2322,0.233,0.236,0.2366,0.2347,0.2388,0.2393,0.2405,0.24,0.2416,0.2417,0.2434,0.2434,0.2433,0.2404,0,0,0,0,0,0,0.2231,0.2237,0.2238,0.2268,0.2277,0.2296,0.2316,0.2322,0.2333,0.2336,0.2364,0.2369,0.2389,0.2402,0.2406,0.2403,0.2418,0.2435,0.2434,0.2433,0.2405,0.2402,0.2399,0,0,0,0,0,0.2229,0.2228,0.2238,0.2244,0.2278,0.2296,0.2301,0.2324,0.2332,0.2333,0.2352,0.2369,0.24,0.2403,0.2408,0.2405,0.2435,0.2434,0.2433,0.2406,0.2403,0.24,0,0,0,0,0,0,0.2196,0.2232,0.2244,0.2253,0.2271,0.2302,0.2304,0.2319,0.2335,0.2337,0.2364,0.2371,0.2379,0.2393,0.2396,0.2407,0.242,0.242,0.2397,0.2394,0.2391,0.2388,0.242,0,0,0,0,0,0.219,0.2202,0.2233,0.2238,0.2246,0.2273,0.2282,0.2298,0.2318,0.2326,0.2346,0.2364,0.2378,0.2387,0.2402,0.2407,0.2414,0.2407,0.2405,0.2402,0.2402,0.2406,0.2403,0.243,0.243,0.243,0,0,0.2177,0.2198,0.2204,0.2232,0.2248,0.2259,0.228,0.2291,0.23,0.2327,0.234,0.2355,0.2377,0.2385,0.239,0.2397,0.2396,0.2401,0.2399,0.24,0.2404,0.2402,0.24,0.2429,0.2429,0.243,0,0,0.216,0.2177,0.2184,0.2199,0.2224,0.2242,0.2243,0.2271,0.2283,0.2295,0.2316,0.2327,0.235,0.2366,0.2376,0.2364,0.238,0.2368,0.2354,0.2357,0.2355,0.2353,0.2349,0.2347,0.2368,0.2368,0.2368,0,0.2141,0.216,0.2185,0.2195,0.2206,0.2232,0.2238,0.2252,0.228,0.2287,0.2294,0.2325,0.2341,0.2354,0.2351,0.2359,0.2361,0.2365,0.2353,0.2352,0.2351,0.2347,0.2345,0.2366,0.2367,0.2367,0.2367,0,0.2136,0.2148,0.215,0.2176,0.2188,0.2196,0.2221,0.223,0.2245,0.2262,0.2274,0.2295,0.2314,0.2318,0.2333,0.2333,0.2336,0.2348,0.2362,0.2346,0.2343,0.2342,0.2364,0.2365,0.2365,0.2366,0,0,0.21,0.214,0.214,0.2152,0.2181,0.2191,0.2199,0.2219,0.2225,0.2243,0.2251,0.2271,0.2282,0.2294,0.231,0.2313,0.2303,0.2325,0.2326,0.232,0.2304,0.2295,0.2293,0.2313,0.2313,0.2313,0.2302,0,0.2087,0.2106,0.2128,0.2138,0.215,0.2175,0.2183,0.22,0.2216,0.2228,0.2246,0.2259,0.2273,0.228,0.2285,0.2303,0.23,0.2304,0.2321,0.2321,0.2314,0.2291,0.2282,0.227,0.2301,0.2301,0.23,0,0.2075,0.2092,0.2104,0.2131,0.2137,0.2144,0.2163,0.2174,0.2195,0.2207,0.222,0.2238,0.2248,0.226,0.2274,0.2276,0.2284,0.2294,0.2295,0.2297,0.231,0.2293,0.2267,0.2266,0.2299,0.2299,0.2299,0,0.2048,0.2074,0.2084,0.2094,0.2126,0.213,0.2144,0.2165,0.2175,0.2192,0.2198,0.2216,0.2225,0.2238,0.226,0.2266,0.2272,0.2285,0.2281,0.2281,0.2282,0.2281,0.2257,0.2286,0.2286,0.2286,0.2286,0,0.2032,0.2038,0.2072,0.2079,0.2086,0.2112,0.2118,0.2134,0.2152,0.2162,0.2184,0.2192,0.222,0.2232,0.2249,0.2258,0.2262,0.2271,0.2276,0.227,0.2268,0.2275,0.2277,0.2286,0.2286,0.2286,0.2286,0,0.2003,0.2026,0.2039,0.2069,0.2076,0.208,0.2105,0.2112,0.2129,0.2141,0.2145,0.2172,0.2187,0.221,0.2231,0.2242,0.2249,0.2256,0.2242,0.2244,0.2239,0.2239,0.2218,0.2217,0.2247,0.2246,0.2246,0,0.1991,0.1996,0.2027,0.2035,0.2048,0.2061,0.2071,0.2096,0.2106,0.213,0.2134,0.215,0.2165,0.2187,0.2208,0.2224,0.2232,0.2224,0.2235,0.2228,0.2232,0.2232,0.2232,0.2221,0.2221,0.222,0.222,0,0.1968,0.1979,0.1994,0.2012,0.2024,0.204,0.2056,0.2062,0.209,0.21,0.2116,0.2127,0.2149,0.2165,0.2184,0.2197,0.2213,0.2216,0.2216,0.221,0.2202,0.2206,0.2235,0.2217,0.2217,0.2217,0.2217,0.2218,0.1947,0.1953,0.1975,0.1991,0.2006,0.2021,0.2029,0.2047,0.2061,0.2081,0.2095,0.2109,0.2129,0.2157,0.217,0.2181,0.2188,0.2188,0.2188,0.2187,0.2185,0.22,0.2184,0.2185,0.2185,0.2185,0.2185,0,0.1925,0.1941,0.1955,0.1977,0.1989,0.2004,0.2023,0.2032,0.2045,0.2062,0.2076,0.2094,0.2109,0.2132,0.2149,0.2153,0.2161,0.2157,0.2157,0.216,0.2178,0.2176,0.2151,0.2151,0.2151,0.2151,0.2151,0.2151,0.1915,0.1926,0.194,0.1958,0.1974,0.1989,0.1998,0.2012,0.2026,0.2045,0.2058,0.2073,0.2092,0.2111,0.2126,0.2132,0.2137,0.2131,0.2139,0.2155,0.2159,0.2162,0.216,0.2132,0.2132,0.212,0.212,0.212]},{"header":{"parameterUnit":"m.s-1","parameterCategory":1,"la1":30.2991,"la2":30.254,"lo1":-89.0895,"lo2":-89.0444,"dy":0.0017,"dx":0.0017,"nx":28,"ny":28,"refTime":"2025-02-04T09:00:00:Z","depth":0,"parameterNumber":3,"parameterNumberName":"V-component_of_WINDS"},"data":[0,0,0,0,0,0,0,0,0,0,0,0,0,0,0,0,0,0,0,0,0,0,0,0,0,0,0,0,0,0,0,0,0,0,0,0,0,0,0,0,0,0,0,0,0,0,0,0,0,0,0,0,0,0,0,0,0,0,0.9307,0.9307,0,0.9304,0.9304,0.9304,0.931,0.931,0.931,0.931,0.9307,0.9306,0.9306,0,0,0,0,0,0,0,0,0,0,0,0,0,0.9315,0.9315,0.9307,0.9307,0.9307,0.9304,0.9304,0.9304,0.931,0.931,0.931,0.9311,0.9307,0.9306,0.9306,0,0,0,0,0,0,0,0,0,0,0,0,0,0.9312,0.9315,0.9307,0.9309,0.931,0.9304,0.9304,0.9304,0.931,0.931,0.931,0.9311,0.9307,0.9306,0.9306,0.9298,0,0,0.9305,0.9305,0,0,0,0,0,0,0,0,0.9312,0.9312,0.9309,0.9309,0.9309,0.9308,0.9306,0.9302,0.931,0.931,0.931,0.9311,0.9307,0.9306,0.9305,0.9298,0.9298,0.9305,0.9305,0.9304,0.9304,0,0,0,0,0,0,0,0.9313,0.9312,0.9306,0.9309,0.9309,0.931,0.931,0.9305,0.9307,0.931,0.931,0.931,0.9307,0.9306,0.9305,0.9298,0.9305,0.9304,0.9304,0.9304,0.9283,0.9282,0,0,0,0,0,0,0.9313,0.9312,0.9306,0.9306,0.9312,0.931,0.931,0.9308,0.9307,0.9307,0.931,0.931,0.9306,0.9306,0.9305,0.9295,0.9304,0.9304,0.9304,0.9283,0.9283,0.9282,0,0,0,0,0,0,0.9313,0.9312,0.9306,0.9309,0.9308,0.9309,0.9308,0.9308,0.9307,0.9307,0.9307,0.9308,0.9306,0.9306,0.93,0.9295,0.9304,0.9303,0.9283,0.9283,0.9282,0.9275,0,0,0,0,0,0,0.9313,0.9312,0.9309,0.9309,0.9308,0.9301,0.9307,0.9308,0.9306,0.9307,0.9305,0.9305,0.9307,0.93,0.9299,0.9295,0.9303,0.9284,0.9283,0.9283,0.9276,0.9275,0.9273,0,0,0,0,0,0.9313,0.9307,0.9309,0.9308,0.9305,0.9301,0.93,0.9302,0.9306,0.9303,0.9303,0.9305,0.9296,0.93,0.9298,0.9294,0.9284,0.9283,0.9283,0.9276,0.9275,0.9273,0,0,0,0,0,0,0.9307,0.9307,0.9309,0.9303,0.9302,0.9302,0.9298,0.9301,0.9298,0.9299,0.9301,0.93,0.9294,0.9293,0.9297,0.9285,0.929,0.9289,0.9286,0.9285,0.9283,0.9283,0.9303,0,0,0,0,0,0.9305,0.9302,0.9302,0.9297,0.9296,0.9297,0.9295,0.9297,0.9296,0.9295,0.9295,0.9293,0.9289,0.9287,0.9284,0.9276,0.9275,0.9272,0.9271,0.927,0.9269,0.9264,0.9262,0.928,0.928,0.928,0,0,0.93,0.93,0.9298,0.9295,0.9295,0.9291,0.9297,0.9293,0.929,0.9294,0.9289,0.9288,0.9286,0.9279,0.9276,0.9278,0.9264,0.9269,0.9268,0.9268,0.9263,0.9261,0.926,0.9279,0.9279,0.928,0,0,0.929,0.929,0.9285,0.9284,0.9283,0.9284,0.9283,0.9282,0.9282,0.9277,0.928,0.9276,0.927,0.9268,0.9267,0.9256,0.9258,0.9255,0.9248,0.9243,0.9242,0.9241,0.9236,0.9234,0.9254,0.9254,0.9254,0,0.9285,0.928,0.9282,0.9278,0.9277,0.9281,0.9275,0.9274,0.9272,0.9271,0.9273,0.9266,0.9265,0.9257,0.9254,0.9253,0.9251,0.9255,0.9242,0.9241,0.924,0.9235,0.9234,0.9253,0.9253,0.9253,0.9253,0,0.9273,0.9269,0.9266,0.9264,0.9262,0.9257,0.9258,0.9256,0.9257,0.9257,0.9251,0.925,0.9247,0.9245,0.9246,0.9237,0.9239,0.9242,0.9247,0.9237,0.9233,0.9232,0.9253,0.9253,0.9253,0.9253,0,0,0.9259,0.9258,0.9257,0.9255,0.9254,0.9251,0.9247,0.9243,0.9241,0.9239,0.9235,0.9229,0.9232,0.923,0.9231,0.9227,0.9218,0.9231,0.9231,0.9228,0.9207,0.9204,0.9202,0.9219,0.9219,0.9219,0.9207,0,0.9249,0.9241,0.9243,0.9235,0.9231,0.9235,0.923,0.9229,0.9229,0.9225,0.9225,0.9221,0.9225,0.9224,0.922,0.922,0.9213,0.9221,0.9215,0.9214,0.9215,0.92,0.9198,0.9186,0.9205,0.9205,0.9205,0,0.9236,0.9233,0.9225,0.9224,0.9223,0.9219,0.9216,0.9213,0.9211,0.9211,0.9209,0.9211,0.9205,0.921,0.9202,0.9207,0.9205,0.9204,0.9204,0.9203,0.9209,0.9199,0.9183,0.9181,0.9202,0.9203,0.9203,0,0.9225,0.922,0.9215,0.9214,0.9213,0.921,0.9209,0.9207,0.9205,0.9202,0.9201,0.9197,0.9195,0.9192,0.9193,0.9196,0.9184,0.919,0.9184,0.9184,0.9181,0.9181,0.9164,0.918,0.918,0.918,0.918,0,0.9214,0.9208,0.921,0.9207,0.9201,0.9203,0.9196,0.9196,0.9194,0.919,0.9193,0.9189,0.919,0.9186,0.9187,0.918,0.9179,0.9178,0.9178,0.9178,0.9178,0.9176,0.9177,0.9179,0.9179,0.918,0.918,0,0.9201,0.9202,0.9196,0.9196,0.9195,0.9191,0.919,0.9186,0.9187,0.9181,0.918,0.918,0.9175,0.9176,0.917,0.9171,0.9162,0.9163,0.9162,0.9163,0.9156,0.9157,0.9137,0.9135,0.9153,0.9153,0.9152,0,0.9193,0.9189,0.9188,0.9186,0.9185,0.9181,0.9179,0.9181,0.9178,0.9176,0.9172,0.9168,0.9164,0.9156,0.9155,0.9151,0.9152,0.9145,0.9151,0.915,0.9151,0.9151,0.915,0.9144,0.9144,0.9144,0.9144,0,0.9179,0.918,0.9177,0.9174,0.9171,0.9169,0.9167,0.9164,0.9166,0.9163,0.9158,0.9155,0.915,0.9145,0.9141,0.9139,0.9141,0.9142,0.914,0.9139,0.9139,0.9138,0.9159,0.9142,0.9142,0.9142,0.9142,0.9142,0.9169,0.9165,0.9164,0.916,0.9159,0.9156,0.9153,0.9153,0.9149,0.9145,0.9146,0.914,0.9138,0.9132,0.9131,0.9126,0.9128,0.9126,0.9125,0.9124,0.9123,0.914,0.9125,0.9125,0.9125,0.9125,0.9125,0,0.9154,0.9153,0.915,0.9147,0.9144,0.9147,0.9144,0.9141,0.9137,0.9134,0.9131,0.9125,0.9121,0.9119,0.9115,0.9111,0.9112,0.911,0.911,0.9109,0.9122,0.9124,0.9109,0.9109,0.9109,0.9109,0.9109,0.9109,0.9146,0.914,0.9141,0.9134,0.9133,0.9128,0.9126,0.9124,0.9122,0.9116,0.9112,0.9111,0.9109,0.9104,0.91,0.91,0.9097,0.9095,0.9095,0.9107,0.9108,0.911,0.9111,0.9095,0.9095,0.9082,0.9082,0.9082]}]]